SL-16 R/B, 24298

Orbit data source: Space-Track

SL-16 R/B, 24298 is space debris in LEO originally from a launch on Wed, 04 Sep 1996 UTC launched from the Tyuratam Missile And Space Complex (TTMTR). Debris objects in space refer to the collection of defunct objects orbiting the Earth. Examples of debris include non-operational satellites, rocket bodies, and fragments generated from explosions, collisions, or faulty payload assembly.

Loading next visibility...
Identifier
24298, 1996-051B
Orbit
LEO
Country
Flag of CISCIS
Related business
Manufacturer
Yuzhnoe
Mission
Spacecraft
Bus & Motor
11S772, Unknown motor
Mass
9,000 kg wet, 9,000 kg dry
Launch date (UTC)
1996-09-04 (29 years ago)
Launch vehicle
Unknown
Launch site
Tyuratam Missile And Space Complex (TTMTR)
Object type
Payload
Rocket body
Debris
Shape & HBR
Cyl, 5.2 m
Radar Cross Section
37.829 m², Large (>1 m²)

Expand to show TLE details & history
Last TLE update: 15 hours ago

TLE from 15 hours ago
0 SL-16 R/B
1 24298U 96051B   25261.21863944 -.00000137  00000-0 -47659-4 0  9997
2 24298  70.7623 180.2889 0014192  19.6749 340.4915 14.12393858497292
Epoch: 2025-09-18T05:14Z
TLE epoch observation values (Epoch: 2025-09-18T05:14:50.447Z)
Latitude
-0.00004°
Longitude
104.1953°
Altitude
843.903 km
Speed
7.436 km/s
True Right ascension
12h 01m 09s
True Declination
0° 00' 00"
Sunlit
Object was in daylight at epoch
Visualization orbit readout
Latitude
Unknown
Longitude
Unknown
Altitude
Unknown
Speed
Unknown
Apparent Right ascension
Unknown
Apparent Declination
Unknown
Sunlit
N/A
Visualization observer readout
Local Sidereal Time
13:00:58
Azimuth
Unknown
Elevation
Unknown
Doppler factor
Unknown
Orbital elements
Apogee altitude
859.399 km
Perigee altitude
838.885 km
Semi-major axis
7,227.279 km
Eccentricity
0.00142
Inclination
70.7623°
RAAN
180.2889°
Arg. of periapsis
19.6749°
True anomaly
340.4371°
Mean anomaly
340.4915°
Eccentric anomaly
340.46431°
Mean motion
3.53249 °/min
Orbital period
101.91 mins
BSTAR
-0.000047659
Loading maneuver chart data...
Computing Atmospheric mass density...
Loading historical data...
Loading historical data...
Loading historical data...
Loading historical data...
Loading historical data...
Loading historical data...
Loading historical data...

Documentation

Showing up to 5 results
|